Lancaster, PA

12:34 PM EDT on August 23, 2017 (GMT -0400)
Lancaster

Weather History for KLNS - December, 2012

Change the Weather History Date:

Monday, December 10, 2012

  Actual Average Record
Temperature  
Mean Temperature 46 °F -  
Max Temperature 52 °F 42 °F 57 °F (1991)
Min Temperature 39 °F 25 °F 4 °F (1989)
Degree Days  
Heating Degree Days 20    
Moisture  
Dew Point 46 °F    
Average Humidity 96    
Maximum Humidity 100    
Minimum Humidity 83    
Precipitation  
Precipitation 0.02 in - - ()
Sea Level Pressure  
Sea Level Pressure 29.69 in    
Wind  
Wind Speed 3 mph (NE)    
Max Wind Speed 14 mph    
Max Gust Speed 24 mph    
Visibility 1 miles    
Events Fog , Rain    
Averages and records for this station are not official NWS values.
T = Trace of Precipitation, MM = Missing Value Source: NWS Daily Summary

Daily Weather History Graph

Daily Weather History Graph

Search for Another Location

Airport or City:

Trip Planner

Search our weather history database for the weather conditions in past years. The results will help you decide how hot, cold, wet, or windy it might be!

Date:

Astronomy

Dec. 10, 2012 Rise Set
Actual Time 7:16 AM EST 4:39 PM EST
Civil Twilight 6:46 AM EST 5:10 PM EST
Nautical Twilight 6:12 AM EST 5:44 PM EST
Astronomical Twilight 5:39 AM EST 6:17 PM EST
Moon 3:57 AM EST (12/10) 2:27 PM EST (12/10)
Length of Visible Light 10h 23m
Length of Day
9h 22m
Waning Crescent, 10% of the Moon is Illuminated
Dec 10
Waning Crescent
Dec 13
New
Dec 20
First Quarter
Dec 28
Full
Jan 4
Last Quarter

Hourly Weather History & Observations

Time (EST) Temp. Windchill Dew Point Humidity Pressure Visibility Wind Dir Wind Speed Gust Speed Precip Events Conditions
12:35 AM 39.2 °F 37.0 °F 39.2 °F 100% 29.96 in 1.8 mi ENE 3.5 mph - 0.00 in   Overcast
12:53 AM 39.9 °F 37.8 °F 39.0 °F 97% 29.96 in 1.8 mi NE 3.5 mph - 0.00 in   Overcast
1:33 AM 39.2 °F - 39.2 °F 100% 29.93 in 0.8 mi Calm Calm - N/A   Overcast
1:53 AM 39.9 °F - 39.0 °F 97% 29.93 in 0.5 mi Calm Calm - N/A Fog Fog
2:23 AM 41.0 °F 39.0 °F 39.2 °F 93% 29.90 in 0.2 mi East 3.5 mph - 0.00 in Fog Fog
2:44 AM 41.0 °F 39.0 °F 39.2 °F 93% 29.90 in 0.5 mi East 3.5 mph - 0.00 in Fog , Rain Light Rain
2:53 AM 41.0 °F 38.0 °F 39.0 °F 93% 29.90 in 0.5 mi East 4.6 mph - 0.00 in Fog , Rain Light Rain
3:07 AM 41.0 °F 39.0 °F 39.2 °F 93% 29.89 in 0.2 mi East 3.5 mph - N/A Fog Fog
3:22 AM 41.0 °F 39.0 °F 39.2 °F 93% 29.88 in 0.5 mi East 3.5 mph - N/A Fog Fog
3:45 AM 41.0 °F 39.0 °F 39.2 °F 93% 29.86 in 0.2 mi East 3.5 mph - 0.01 in Fog Fog
3:53 AM 41.0 °F - 39.9 °F 96% 29.87 in 0.2 mi Calm Calm - 0.01 in Fog Fog
4:53 AM 42.1 °F - 41.0 °F 96% 29.84 in 0.2 mi Calm Calm - N/A Fog Fog
5:53 AM 42.1 °F - 41.0 °F 96% 29.82 in 0.2 mi Calm Calm - N/A Fog Fog
6:53 AM 43.0 °F 41.3 °F 42.1 °F 97% 29.79 in 0.2 mi East 3.5 mph - N/A Fog Fog
8:53 AM 46.0 °F 44.8 °F 44.1 °F 93% 29.77 in 0.2 mi East 3.5 mph - N/A Fog Fog
9:53 AM 46.9 °F - 46.0 °F 97% 29.76 in 0.2 mi East 3.5 mph - 0.01 in Fog Fog
10:53 AM 48.9 °F - 48.0 °F 97% 29.73 in 0.2 mi Calm Calm - N/A Fog Fog
11:53 AM 51.1 °F - 50.0 °F 96% 29.70 in 0.2 mi Calm Calm - N/A Fog Fog
12:13 PM 51.8 °F - 51.8 °F 100% 29.68 in 1.0 mi Calm Calm - N/A   Mist
12:36 PM 51.8 °F - 51.8 °F 100% 29.66 in 0.5 mi Calm Calm - N/A Fog Fog
12:53 PM 52.0 °F - 51.1 °F 97% 29.65 in 0.5 mi NNE 3.5 mph - N/A Fog Fog
1:53 PM 52.0 °F - 50.0 °F 93% 29.64 in 1.0 mi Calm Calm - N/A   Overcast
2:53 PM 52.0 °F - 50.0 °F 93% 29.60 in 1.2 mi East 3.5 mph - N/A   Overcast
3:13 PM 51.8 °F - 50.0 °F 94% 29.60 in 0.8 mi ESE 3.5 mph - N/A   Overcast
3:24 PM 51.8 °F - 51.8 °F 100% 29.59 in 0.5 mi Calm Calm - N/A Fog Fog
3:53 PM 52.0 °F - 50.0 °F 93% 29.60 in 0.5 mi Calm Calm - N/A Fog Fog
4:14 PM 51.8 °F - 50.0 °F 94% 29.59 in 0.2 mi Calm Calm - N/A Fog Fog
4:34 PM 51.8 °F - 51.8 °F 100% 29.58 in 1.0 mi Calm Calm - N/A   Overcast
4:53 PM 51.1 °F - 48.9 °F 92% 29.59 in 1.0 mi Calm Calm - N/A   Overcast
5:45 PM 51.8 °F - 48.2 °F 88% 29.58 in 0.5 mi Calm Calm - N/A Fog Fog
5:51 PM 50.0 °F - 48.2 °F 94% 29.58 in 0.2 mi Calm Calm - N/A Fog Fog
5:53 PM 50.0 °F - 48.9 °F 96% 29.58 in 0.2 mi Calm Calm - N/A Fog Fog
6:29 PM 50.0 °F - 48.2 °F 94% 29.58 in 0.8 mi Calm Calm - N/A   Overcast
6:53 PM 50.0 °F - 48.9 °F 96% 29.60 in 1.0 mi WNW 6.9 mph - N/A   Overcast
7:51 PM 48.2 °F - 48.2 °F 100% 29.56 in 0.2 mi ENE 3.5 mph - 0.00 in Fog Fog
7:53 PM 48.9 °F - 48.0 °F 97% 29.57 in 0.2 mi Calm Calm - 0.00 in Fog Fog
8:03 PM 48.2 °F - 48.2 °F 100% 29.56 in 0.2 mi Calm Calm - N/A Fog Fog
8:18 PM 48.2 °F - 48.2 °F 100% 29.56 in 0.2 mi ENE 3.5 mph - N/A Fog Fog
8:53 PM 48.9 °F - 48.0 °F 97% 29.57 in 0.2 mi Calm Calm - N/A Fog Fog
9:53 PM 48.0 °F - 46.9 °F 96% 29.58 in 0.2 mi Calm Calm - N/A Fog Fog
10:13 PM 48.2 °F - 48.2 °F 100% 29.58 in 0.5 mi WNW 4.6 mph - N/A Fog Fog
10:20 PM 48.2 °F - 48.2 °F 100% 29.58 in 0.8 mi WNW 5.8 mph - N/A   Overcast
10:30 PM 50.0 °F - 48.2 °F 94% 29.59 in 1.0 mi WNW 9.2 mph - N/A   Overcast
10:32 PM 50.0 °F - 48.2 °F 94% 29.59 in 0.8 mi WNW 8.1 mph - N/A   Overcast
10:46 PM 51.8 °F - 50.0 °F 94% 29.59 in 1.5 mi NW 5.8 mph - N/A   Overcast
10:53 PM 51.1 °F - 50.0 °F 96% 29.61 in 1.8 mi WNW 8.1 mph - N/A   Overcast
10:58 PM 51.8 °F - 50.0 °F 94% 29.61 in 2.5 mi WNW 10.4 mph - N/A   Overcast
11:31 PM 50.0 °F - 48.2 °F 94% 29.63 in 7.0 mi NNW 13.8 mph 23.0 mph 0.00 in Rain Light Rain
11:39 PM 48.2 °F - 46.4 °F 93% 29.63 in 10.0 mi NNW 12.7 mph 23.0 mph 0.00 in Rain Light Rain
11:53 PM 48.0 °F - 43.0 °F 83% 29.64 in 10.0 mi NNW 13.8 mph 24.2 mph 0.00 in Rain Light Rain